STARLINK-33834, 63586

Orbit data source: Space-Track

STARLINK-33834, 63586 is a payload satellite owned by SpaceX/Seattle (US) in LEO that was launched on Mon, 14 Apr 2025 UTC via an FALCON 9 launch vehicle from the Air Force Eastern Test Range (AFETR). Payload-class satellites include a variety of spacecraft equipped with specific instruments for various scientific and technological missions. These include communications satellites like Starlink; space stations such as the ISS; scientific satellites like the Hubble; Earth observation satellites from companies like Planet Labs, Umbra, and HawkEye 360; GPS; miniature CubeSats for education and research; and military/defense satellites.

Loading next visibility...
Identifier
63586, 2025-076T
Orbit
LEO
Country
Flag of USUS
Related business
Manufacturer
SpaceX/Seattle
Mission
Operational Commercial Communications
Bus & Motor
STARLINK V2MO, Unknown motor
Mass
575 kg wet, ~530 kg dry
Launch date (UTC)
2025-04-14 (1 year ago)
Launch vehicle
FALCON 9
Launch site
Air Force Eastern Test Range (AFETR)
Object type
Payload
Rocket body
Debris
Shape & HBR
Box + 2 Pan, 17.7 m
Radar Cross Section
36.964 m², Large (>1 m²)

Expand to show TLE details & history
Last TLE update: 8 hours ago

TLE from 8 hours ago
0 STARLINK-33834
1 63586U 25076T   26120.43378822  .00030509  00000-0  11135-2 0  9996
2 63586  43.0003  29.4955 0001185 282.5158  77.5561 15.27584202 59742
Epoch: 2026-04-30T10:24Z
TLE epoch observation values (Epoch: 2026-04-30T10:24:39.302Z)
Latitude
-0.00001°
Longitude
14.95127°
Altitude
482.637 km
Speed
7.626 km/s
True Right ascension
01h 57m 58s
True Declination
0° 00' 00"
Sunlit
Object was in daylight at epoch
Visualization orbit readout
Latitude
Unknown
Longitude
Unknown
Altitude
Unknown
Speed
Unknown
Apparent Right ascension
Unknown
Apparent Declination
Unknown
Sunlit
N/A
Visualization observer readout
Local Sidereal Time
02:24:32
Azimuth
Unknown
Elevation
Unknown
Doppler factor
Unknown
Orbital elements
Apogee altitude
485.795 km
Perigee altitude
484.168 km
Semi-major axis
6,863.119 km
Eccentricity
0.00012
Inclination
43.0003°
RAAN
29.4955°
Arg. of periapsis
282.5158°
True anomaly
77.56936°
Mean anomaly
77.5561°
Eccentric anomaly
77.56273°
Mean motion
3.81734 °/min
Orbital period
94.31 mins
BSTAR
0.0011135
Loading maneuver chart data...
Computing Atmospheric mass density...
Loading historical data...
Loading historical data...
Loading historical data...
Loading historical data...
Loading historical data...
Loading historical data...
Loading historical data...

Documentation

Showing up to 5 results
|